Corpus Christi, TX

5:26 PM CDT on August 25, 2016 (GMT -0500)
Corpus Christi International

Weather History for KCRP - September, 2012

Change the Weather History Date:

Wednesday, September 26, 2012

  Actual Average Record
Temperature  
Mean Temperature 84 °F 79 °F  
Max Temperature 94 °F 88 °F 100 °F (2011)
Min Temperature 73 °F 70 °F 53 °F (2000)
Degree Days  
Heating Degree Days 0 0  
Month to date heating degree days 0 0  
Since 1 July heating degree days 0 0  
Cooling Degree Days 19 14  
Month to date cooling degree days 499 428  
Year to date cooling degree days 3730 2989  
Growing Degree Days 33 (Base 50)    
Moisture  
Dew Point 71 °F    
Average Humidity 67    
Maximum Humidity 84    
Minimum Humidity 49    
Precipitation  
Precipitation 0.00 in 0.15 in 3.29 in (1944)
Month to date precipitation 2.38 4.41  
Year to date precipitation 16.80 23.75  
Snow  
Snow 0.00 in - - ()
Month to date snowfall 0.0  
Since 1 July snowfall 0.0  
Since 1 September snowfall 0.0  
Snow Depth 0.00 in    
Sea Level Pressure  
Sea Level Pressure 29.96 in    
Wind  
Wind Speed 12 mph (SE)    
Max Wind Speed 22 mph    
Max Gust Speed 28 mph    
Visibility 10 miles    
Events      
T = Trace of Precipitation, MM = Missing Value Source: NWS Daily Summary

Daily Weather History Graph

Daily Weather History Graph

Search for Another Location

Airport or City:

Trip Planner

Search our weather history database for the weather conditions in past years. The results will help you decide how hot, cold, wet, or windy it might be!

Date:

Astronomy

Sep. 26, 2012 Rise Set
Actual Time 7:20 AM CDT 7:21 PM CDT
Civil Twilight 6:57 AM CDT 7:44 PM CDT
Nautical Twilight 6:30 AM CDT 8:11 PM CDT
Astronomical Twilight 6:02 AM CDT 8:38 PM CDT
Moon 5:09 PM CDT (9/26) 4:03 AM CDT (9/26)
Length of Visible Light 12h 47m
Length of Day
12h 00m
Waxing Gibbous, 88% of the Moon is Illuminated
Sep 26
Waxing Gibbous
Sep 29
Full
Oct 8
Last Quarter
Oct 15
New
Oct 21
First Quarter

Hourly Weather History & Observations

Time (CDT) Temp. Heat Index Dew Point Humidity Pressure Visibility Wind Dir Wind Speed Gust Speed Precip Events Conditions
12:51 AM 79.0 °F - 69.1 °F 72% 29.96 in 10.0 mi SE 8.1 mph - N/A   Partly Cloudy
1:51 AM 78.1 °F - 69.1 °F 74% 29.95 in 10.0 mi SE 8.1 mph - N/A   Partly Cloudy
2:51 AM 79.0 °F - 70.0 °F 74% 29.94 in 10.0 mi SSE 6.9 mph - N/A   Scattered Clouds
3:51 AM 77.0 °F - 70.0 °F 79% 29.93 in 10.0 mi SSE 6.9 mph - N/A   Partly Cloudy
4:51 AM 75.0 °F - 69.1 °F 82% 29.93 in 10.0 mi SE 6.9 mph - N/A   Partly Cloudy
5:51 AM 75.0 °F - 69.1 °F 82% 29.94 in 10.0 mi ESE 5.8 mph - N/A   Partly Cloudy
6:51 AM 73.9 °F - 68.0 °F 82% 29.95 in 10.0 mi ESE 6.9 mph - N/A   Partly Cloudy
7:51 AM 75.0 °F - 69.1 °F 82% 29.96 in 10.0 mi SE 6.9 mph - N/A   Partly Cloudy
8:51 AM 82.9 °F 87.5 °F 71.1 °F 67% 29.97 in 10.0 mi SE 8.1 mph - N/A   Partly Cloudy
9:51 AM 87.1 °F 92.8 °F 71.1 °F 59% 29.99 in 10.0 mi SE 12.7 mph - N/A   Partly Cloudy
10:51 AM 88.0 °F 94.7 °F 72.0 °F 59% 29.99 in 10.0 mi SE 13.8 mph - N/A   Scattered Clouds
11:51 AM 90.0 °F 95.4 °F 70.0 °F 52% 29.99 in 10.0 mi SE 17.3 mph - N/A   Mostly Cloudy
12:51 PM 93.0 °F 100.1 °F 71.1 °F 49% 29.97 in 10.0 mi SE 13.8 mph 21.9 mph N/A   Mostly Cloudy
1:51 PM 93.0 °F 100.1 °F 71.1 °F 49% 29.96 in 10.0 mi SE 16.1 mph - N/A   Mostly Cloudy
2:51 PM 91.0 °F 95.6 °F 69.1 °F 48% 29.94 in 10.0 mi SE 16.1 mph 24.2 mph N/A   Scattered Clouds
3:51 PM 91.0 °F 96.6 °F 70.0 °F 50% 29.93 in 10.0 mi ESE 17.3 mph - N/A   Mostly Cloudy
4:51 PM 90.0 °F 96.4 °F 71.1 °F 54% 29.93 in 10.0 mi SE 18.4 mph 24.2 mph N/A   Scattered Clouds
5:51 PM 88.0 °F 94.7 °F 72.0 °F 59% 29.94 in 10.0 mi SE 16.1 mph - N/A   Scattered Clouds
6:51 PM 86.0 °F 91.8 °F 71.6 °F 62% 29.94 in 10.0 mi SE 15.0 mph - N/A   Partly Cloudy
7:51 PM 84.0 °F 90.2 °F 73.0 °F 69% 29.96 in 10.0 mi ESE 16.1 mph - N/A   Partly Cloudy
8:51 PM 84.0 °F 90.2 °F 73.0 °F 69% 29.96 in 10.0 mi SE 13.8 mph - N/A   Partly Cloudy
9:51 PM 82.9 °F 89.4 °F 73.9 °F 74% 29.98 in 10.0 mi ESE 13.8 mph - N/A   Partly Cloudy
10:51 PM 82.9 °F 89.4 °F 73.9 °F 74% 29.99 in 10.0 mi SE 12.7 mph - N/A   Partly Cloudy
11:51 PM 82.9 °F 89.4 °F 73.9 °F 74% 29.99 in 10.0 mi SE 10.4 mph - N/A   Scattered Clouds